sat.trackr.live / text

‹ back to catalog

ONEWEB-0155

NORAD 48057 · 2021-025R

PAYLOAD ACTIVE UNKNOWN

§ Identity

Operator
Country
UK
Launch date
2021-03-25
Launch site
VOSTO
Launch vehicle
Mass (kg)
RCS (m²)

Purposes: comms

External: N2YO · Heavens-Above · Gunter

§ Orbital elements

Epoch: 2026-05-25T01:19:07.971168Z

Period
109.63 min
Inclination
87.8946°
Eccentricity
0.0001617
Mean motion
13.13467975 rev/d
Perigee alt
1,208.5 km
Apogee alt
1,211.0 km
Semi-major
7,587.9 km
B*
-6.4519e-4
RAAN
324.8275°
Arg perigee
93.1036°
Mean anomaly
267.0278°
Rev number
25,064

§ Raw data

ONEWEB-01551 48057U 21025R   26145.05495337 -.00000223  00000+0 -64519-3 0  99942 48057  87.8946 324.8275 0001617  93.1036 267.0278 13.13467975250641

JSON: /api/v1/satellites/48057 · /tle

For live sub-satellite position, see the globe view (requires WebGL).

§ Visibility from observer

Set your observer location to see the next 7 days of passes ≥ 10°. The values pass through the URL so the page stays shareable.

No JS? Fill the form by hand. The geolocation button needs JavaScript.